Regional Weather Roundup
Issued by NWS

Home | Current Version | Previous Version | Graphics & Text | Print | Product List | Glossary On
Versions: 1 2 3 4 5 6 7 8 9 10 11 12 13 14 15 16 17 18 19 20 21 22 23 24 25 26 27 28 29 30 31 32 33 34 35 36 37 38 39 40 41 42 43 44 45 46 47 48 49 50
000
ASUS43 KLOT 191400
RWRIL

ILLINOIS REGIONAL WEATHER ROUNDUP
NATIONAL WEATHER SERVICE CHICAGO/ROMEOVILLE IL
800 AM CST FRI DEC 19 2014

NOTE: "FAIR" INDICATES FEW OR NO CLOUDS BELOW 12,000 FEET WITH NO
SIGNIFICANT WEATHER AND/OR OBSTRUCTIONS TO VISIBILITY.

* THESE STATIONS ARE NOT UNDER NWS QUALITY CONTROL. THEY ALSO MAY NOT
  REPORT WEATHER SUCH AS PRECIPITATION OR FOG.

ILZ001-002-007-009-015-016-024-191500-
NORTHWEST ILLINOIS

CITY           SKY/WX    TMP DP  RH WIND       PRES   REMARKS
MOLINE         PTCLDY    15  12  88 CALM      30.32S
STERLING*      CLOUDY    27  19  74 N6        30.31R WCI  20
$$

ILZ003-004-008-010-011-017-018-191500-
NORTH CENTRAL ILLINOIS

CITY           SKY/WX    TMP DP  RH WIND       PRES   REMARKS
ROCKFORD       CLOUDY    27  21  78 NE3       30.32R
$$

ILZ005-006-012>014-019>023-191500-
NORTHEAST ILLINOIS

CITY           SKY/WX    TMP DP  RH WIND       PRES   REMARKS
CHICAGO-OHARE  CLOUDY    28  21  75 N6        30.29S WCI  22
CHICAGO-MIDWAY CLOUDY    31  23  72 N7        30.29S WCI  24
AURORA         MOCLDY    27  21  78 N6        30.30R WCI  20
WAUKEGAN       CLOUDY    26  21  81 CALM      30.29S
DUPAGE AIRPORT CLOUDY    28  22  78 N3        30.29R
WHEELING       CLOUDY    28  21  75 N8        30.31S WCI  20
NORTHERLY ISL    N/A     31  22  69 N3          N/A
$$

LMZ740>746-191500-
SOUTHERN LAKE MICHIGAN

STATION/POSITION SKY/WX   TEMP    WIND        PRES    VSBY  WAVE
                          AIR SEA DIR/SP/G                  HT/PER
                          (F)     (DEG/KT/KT) (MB)    (MI)  (FT/S)
WAUKEGAN HARBOR            27     350/  5/  7   N/A
HARRISON CRIB              30     340/  5/  7   N/A
BURNHAM HARBOR             31     310/  3/  8   N/A
CALUMET HARBOR             31     320/  4/  6 1024.4R
$$

ILZ025>027-034>036-040-047-049-050-058-095>099-191500-
WEST-CENTRAL ILLINOIS

CITY           SKY/WX    TMP DP  RH WIND       PRES   REMARKS
QUINCY         CLOUDY    28  24  85 E6        30.30R WCI  22
MACOMB*        CLOUDY    25  23  91 E3        30.32S FOG
$$

ILZ028>032-037-038-041>044-048-051>054-059>061-191500-
CENTRAL ILLINOIS

CITY           SKY/WX    TMP DP  RH WIND       PRES   REMARKS
DECATUR        CLEAR     20  18  92 S3        30.33R FOG
PEORIA         PTCLDY    20  15  81 CALM      30.32S HAZE
LINCOLN*       CLEAR     19  17  93 CALM      30.35R FOG
SPRINGFIELD    CLOUDY    26  22  84 CALM      30.33R
TAYLORVILLE    NOT AVBL
$$

ILZ033-039-045-046-055>057-062-063-191500-
EAST-CENTRAL ILLINOIS

CITY           SKY/WX    TMP DP  RH WIND       PRES   REMARKS
CHAMPAIGN      FAIR      20  16  84 CALM      30.31R
MATTOON        CLEAR     22  18  85 CALM      30.32R FOG
$$

ILZ079-100>102-191500-
SOUTHWEST ILLINOIS

CITY           SKY/WX    TMP DP  RH WIND       PRES   REMARKS
ALTON          PTCLDY    28  27  93 CALM      30.31S FOG
CAHOKIA*       CLEAR     30  26  85 CALM      30.33R
$$

ILZ064>066-069>071-074>076-080>082-084>086-088>090-092>094-191500-
SOUTH-CENTRAL ILLINOIS

CITY           SKY/WX    TMP DP  RH WIND       PRES   REMARKS
CARBONDALE     CLOUDY    32  25  75 NE5       30.32R WCI  27
MARION         CLOUDY    32  28  86 NE6       30.32R FOG     WCI  26
MT. VERNON     CLOUDY    28  21  74 NE3       30.32R
$$

ILZ067-068-072-073-078-083-087-091-191500-
SOUTHEAST ILLINOIS

CITY           SKY/WX    TMP DP  RH WIND       PRES   REMARKS
LAWRENCEVILLE  CLEAR     27  24  89 N5        30.32S FOG     WCI  22
$$

ABBREVIATIONS USED IN REMARKS
   TC - TEMPERATURE IN CELSIUS
  WCI - WIND CHILL INDEX
   HX - HEAT INDEX
  VSB - VISIBILITY
$$




USA.gov is the U.S. government's official web portal to all federal, state and local government web resources and services.